User: anonymous   Login
Location: Fort Wayne
(41.1310°N, 85.1290°W)
Time: 03:51:11
(UTC-04:00)
Language:

OPAL - Orbit

View from above orbital plane
View from above orbital plane
View from above satellite
View from above satellite

Ground track
Ground track

The orbit data is extracted from the following two-line orbital elements,

1 26063U 00004C   16151.73099994  .00000012  00000-0  24020-4 0  9990
2 26063 100.1892  78.9968 0035962 307.7252  52.0671 14.36618349856463
Epoch (UTC): 30 May 2016 17:32:38
Eccentricity: 0.0035962
inclination: 100.1892°
perigee height: 744 km
apogee height: 795 km
right ascension of ascending node: 78.9968°
argument of perigee: 307.7252°
revolutions per day: 14.36618349
mean anomaly at epoch: 52.0671°
orbit number at epoch: 85646

The dashed part of the orbit path shows where the satellite is in the earth's shadow,  

DLR